Overview Statistics Trail Chart Weather Telemetry Raw packets
 

This is the latest recevied weather packets stored in our database for station/object N1ORT. If no packets are shown the sender has not sent any weather packets the latest 10 day(s).

<< 33 34 35 36 37 38 39 >>
Time Temp. Humidity Pressure Rain* Wind** Luminosity Snow
1788387540 18.33° C 93% 1019.7 hPa 0 mm - 37 W/m² -
1788387239 18.89° C 93% 1019.6 hPa 0 mm - 40 W/m² -
1788386935 18.89° C 93% 1019.7 hPa 0 mm - 43 W/m² -
1788386634 18.89° C 92% 1019.8 hPa 0 mm - 51 W/m² -
1788386329 18.89° C 92% 1020 hPa 0 mm - 55 W/m² -
1788386024 18.89° C 91% 1019.9 hPa 0 mm - 55 W/m² -
1788385720 18.89° C 92% 1020 hPa 0 mm - 66 W/m² -
1788385419 18.89° C 92% 1019.7 hPa 0 mm - 64 W/m² -
1788385114 18.89° C 91% 1019.6 hPa 0 mm - 63 W/m² -
1788384810 18.89° C 90% 1019.8 hPa 0 mm - 67 W/m² -
1788384508 19.44° C 90% 1019.7 hPa 0 mm - 59 W/m² -
1788384205 20° C 89% 1019.5 hPa 0 mm - 64 W/m² -
1788383902 20° C 88% 1019.3 hPa 0 mm - 83 W/m² -
1788383597 20° C 87% 1019.5 hPa 0 mm - 146 W/m² -
1788383292 20° C 87% 1019.4 hPa 0 mm - 76 W/m² -
1788382987 20° C 86% 1019.6 hPa 0 mm - 92 W/m² -
1788382684 20° C 86% 1019.6 hPa 0 mm - 130 W/m² -
1788382379 20° C 86% 1019.5 hPa 0 mm - 137 W/m² -
1788382074 20° C 86% 1019.6 hPa 0 mm - 123 W/m² -
1788381770 20.56° C 86% 1019.5 hPa 0 mm - 106 W/m² -
1788381465 20.56° C 85% 1019.8 hPa 0 mm - 123 W/m² -
1788381165 20.56° C 86% 1019.9 hPa 0 mm - 123 W/m² -
1788380860 20.56° C 84% 1019.9 hPa 0 mm - 167 W/m² -
1788380556 21.11° C 84% 1019.9 hPa 0 mm - 313 W/m² -
1788380253 21.11° C 84% 1019.9 hPa 0 mm - 411 W/m² -

* Rain latest hour (hover to see other rain measurements)
** Current wind speed in m/s (hover to see current wind gust speed)